Other Public Products
Issued by NWS Grand Forks, ND

Home | Current Version | Previous Version | Graphics & Text | Print | Product List | Glossary On
Versions: 1 2 3 4 5 6 7 8 9 10 11 12 13 14 15 16 17 18 19 20 21 22 23 24 25 26 27 28 29 30 31 32 33 34 35 36 37 38 39 40 41 42 43 44 45 46 47 48 49 50
000
FPUS83 KFGF 221110
OPUFGF
PRAIRIE TO PINES WEATHER ROUNDUP
NATIONAL WEATHER SERVICE EASTERN NORTH DAKOTA/GRAND FORKS ND
600 AM CDT TUE AUG 22 2017

 **SATELLITE DATA USED TO AUGMENT SKY COVER AT AUTOMATED STATIONS**
 *****  WEATHER ACROSS EASTERN NORTH DAKOTA  *****

CITY           SKY/WX    TMP DP  RH WIND       PRES   REMARKS
GRAND FORKS    FAIR      50  46  86 W7        30.00R
GRAND FORKS AF FAIR      51  44  77 NW8       30.02R
GRAND CITY NWS NOT AVBL
BUXTON         NOT AVBL
DEVILS LAKE    FAIR      52  45  77 W9        30.08R
FARGO          FAIR      49  47  93 W6        30.03R
WAHPETON ARPT  FAIR      46  45  93 W7        30.04S
$$

 *****  WEATHER ACROSS CENTRAL AND WESTERN NORTH DAKOTA  *****

CITY           SKY/WX    TMP DP  RH WIND       PRES   REMARKS
JAMESTOWN      FAIR      50  45  83 W7        30.09R
BISMARCK       FAIR      48  44  86 SW5       30.17R
MINOT          FAIR      50  41  71 SW9       30.13R
MINOT AFB      FAIR      44  39  80 W9        30.11S
GARRISON         N/A     43  39  86 CALM      30.15R
WILLISTON      FAIR      43  37  79 S3        30.18S
DICKINSON      FAIR      44  38  79 W5        30.19R
HETTINGER      FAIR      40  36  86 CALM      30.22R
$$

 *****  OTHER OBSERVATIONS NORTHEAST NORTH DAKOTA  *****

CITY           SKY/WX    TMP DP  RH WIND       PRES   REMARKS
WALHALLA       FAIR      52  52 100 W6        30.01S
LANGDON        FAIR      46  46 100 NW10      30.05R
CAVALIER       FAIR      50  45  81 W8        30.00S
GRAFTON        FAIR      54  46  76 NW12      30.02R
CANDO          FAIR      45  45 100 W8        30.10R
FORT TOTTEN      N/A     53  49  84 NW2       29.95S
ROLLA          FAIR      46  43  87 W9        30.09R
RUGBY          FAIR      41  41 100 W6        30.10R
 ***** THE ABOVE OBSERVATIONS ARE NON NWS ARE NOT QUALITY
        CONTROLLED AND MAY MIS-REPORT RAIN FOR SNOW...
$$

 *****  OTHER OBSERVATIONS SOUTHEAST NORTH DAKOTA *****

CITY           SKY/WX    TMP DP  RH WIND       PRES   REMARKS
COOPERSTOWN    FAIR      48  46  93 W12       30.07R
VALLEY CITY      N/A     48  48 100 W10       30.09R
OAKES          NOT AVBL
GWINNER        SUNNY     52  46  82 W10       30.07S
SHEYENNE NWR     N/A     50  47  89 W5        29.95S
BUFFALO        NOT AVBL
WYNDMERE       NOT AVBL
 ***** THE ABOVE OBSERVATIONS ARE NON NWS ARE NOT QUALITY
       CONTROLLED AND MAY MIS-REPORT RAIN FOR SNOW...
$$

  *****  WEATHER ACROSS NORTHERN MINNESOTA  *****

CITY           SKY/WX    TMP DP  RH WIND       PRES   REMARKS
FLAG ISLAND      N/A     52  48  87 W6        29.90S
WARROAD        FAIR      48  45  87 W8        29.94S
ROSEAU         FAIR      48  45  87 W9        29.95S
HALLOCK        FAIR      48  45  87 NW6       29.99R
THF RVR FALLS  FAIR      48  44  86 W8        30.00R
HALSTAD        NOT AVBL
FOSSTON        FAIR      43  43 100 SW3       30.00S
BAUDETTE       FAIR      49  48  97 W6        29.92S
WASKISH        FAIR      55  52  88 NW12G17   29.94S
CROOKSTON      FAIR      45  43  93 NW7       30.01R
$$
  *****  WEATHER ACROSS CENTRAL AND WEST MINNESOTA  *****

CITY           SKY/WX    TMP DP  RH WIND       PRES   REMARKS
BEMIDJI        FAIR      46  46 100 W3        29.97S
PARK RAPIDS    FAIR      49  47  93 W7        30.00R
WADENA         FAIR      50  50 100 W3        30.01S
DETROIT LAKES  FAIR      52  50  93 W3        30.03S
MOORHEAD       FAIR      48  46  93 CALM      30.03S
FERGUS FALLS   FAIR      48  48 100 N3        30.04S
ELBOW LAKE     FAIR      51  50  99 NW5       30.05R
MORRIS MN      FAIR      50  48  93 NW6       30.04R
STAPLES        FAIR      48  48 100 NW5       30.00S
WHEATON        FAIR      52  48  87 W5        30.07R
$$
  *****  WEATHER ELSEWHERE ACROSS MINNESOTA  *****

CITY           SKY/WX    TMP DP  RH WIND       PRES   REMARKS
DULUTH         MOCLDY    52  52 100 NW10      29.90R
INTRNTL FALLS  CLOUDY    50  49  96 W6        29.89F
ELY            MOCLDY    54  52  94 W5        29.88R
CLOQUET        FAIR      52  50  93 W8        29.92R
BRAINERD       FAIR      54  51  90 NW7       29.98R
HIBBING        FAIR      50  50 100 NW9       29.91R
ALEXANDRIA     FAIR      53  51  93 W6        30.04R
SAINT CLOUD    FAIR      54  53  97 NW7       29.99R
MINNEAPOLIS    FAIR      61  56  83 NW13      29.95R
$$

  *****  WEATHER ACROSS SOUTH DAKOTA  *****

CITY           SKY/WX    TMP DP  RH WIND       PRES   REMARKS
SIOUX FALLS    FAIR      54  53  97 NW5       30.10R
BROOKINGS      FAIR      51  49  92 CALM      30.11R
WATERTOWN      FAIR      52  50  93 W8        30.09R
HURON          FAIR      46  45  96 W5        30.13R
SISSETON         N/A     50  47  89 NW3       30.06R
ABERDEEN       FAIR      44  42  93 SW5       30.11R
MITCHELL       FAIR      50  48  93 NW5       30.14R
PIERRE         FAIR      53  47  79 W5        30.17R
MOBRIDGE       FAIR      49  46  90 NW3       30.15
RAPID CITY     FAIR      48  41  76 NW6       30.22S
$$

  *****  SOME WEATHER IN NEARBY STATES *****

CITY           SKY/WX    TMP DP  RH WIND       PRES   REMARKS
GLASGOW MT     NOT AVBL
GREAT FALLS MT FAIR      51  34  52 S7        30.15S
CHEYENNE WY    CLOUDY    57  49  74 S8        30.34F
SCOTTSBLUFF NE FAIR      51  46  83 NE6       30.27S
OMAHA NE       CLOUDY    65  62  90 NW5       30.07R
DES MOINES IA  MOCLDY    65  63  93 NW10      30.00R
DAVENPORT IA   FAIR      66  64  93 W7        29.93F
CHICAGO IL     CLOUDY    72  67  84 W8        29.86S
EAU CLAIRE WI  FAIR      62  59  90 NW10      29.87R
LA CROSSE WI   MOCLDY    68  63  84 NW9       29.86R
$$

  *****  SOME NATIONAL WEATHER *****

CITY           SKY/WX    TMP DP  RH WIND       PRES   REMARKS
LA GUARDIA NY  MOCLDY    76  73  91 SW5       30.02S
RALEIGH NC     FAIR      74  73  97 SW3       30.13R FOG
ATLANTA GA     FAIR      74  71  91 CALM      30.13R
NEW ORLEANS LA FAIR      76  75  97 CALM      30.04R
OKLAHOMA CITY  FAIR      73  70  90 S7        30.02S
ALBUQUERQUE NM FAIR      67  54  63 NE6       30.26S
SALT LAKE CITY FAIR      72  45  37 SE5       30.14F
LOS ANGELES CA FAIR      66  64  93 SW5       29.97S
BOISE ID       FAIR      64  39  39 SE9       30.07S
SEATTLE WA     FAIR      66  53  63 NE5       30.00S
$$

*** WEATHER ACROSS MANITOBA...SASKATCHEWAN AND ONTARIO ***
                ***ONTARIO***

CITY           SKY/WX    TMP DP  RH WIND       PRES   REMARKS
GERALDTON      LGT RAIN  54  54 100 W2        29.69F
THUNDER BAY    MOCLDY    54  54 100 W5        29.76S
SIOUX LOOKOUT  MOCLDY    52  48  87 NW8       29.80S
TORONTO        MOCLDY    73  70  88 SW12      29.80F
BIG TROUT LK   CLOUDY    52  52 100 N8        29.74R FOG
PICKLE LAKE    LGT RAIN  54  52  94 NW9       29.73
DRYDEN         MOCLDY    48  48 100 W7        29.84S
KENORA         CLOUDY    52  50  93 NW8       29.88S
$$
                *** MANITOBA***

CITY           SKY/WX    TMP DP  RH WIND       PRES   REMARKS
BRANDON        PTCLDY    43  41  93 W10       30.06R
DAUPHIN        CLEAR     48  43  81 W12       30.02R
ISLAND LAKE    CLOUDY    54  52  94 NW6       29.87R
PILOT MOUND      N/A     43  39  87 W5          N/A
THE PAS        PTCLDY    57  52  82 NW8       30.02R
THOMPSON       CLOUDY    50  50 100 N6        30.00R
WINNIPEG       PTCLDY    50  46  87 W9        29.96R
LYNN LAKE      CLOUDY    52  50  93 MISG      30.03S
CHURCHILL      MOCLDY    46  43  87 N13       30.04R
GILLAM         DRIZZLE   48  46  93 N14G23    29.97R
$$
                ***SASKATCHEWAN***

CITY           SKY/WX    TMP DP  RH WIND       PRES   REMARKS
ESTEVAN        CLEAR     41  37  87 W5        30.15S
KINDERSLEY     CLOUDY    54  39  58 S7        30.11F
LLOYDMINSTER   CLOUDY    54  48  82 SW7       30.06S
PRINCE ALBERT  PTCLDY    39  36  87 CALM      30.11S
REGINA         CLEAR     41  34  75 CALM      30.15S
YORKTON        CLEAR     48  43  81 W12       30.09S



USA.gov is the U.S. government's official web portal to all federal, state and local government web resources and services.